{"data":{"norad_id":69788,"intl_designator":"2026-151AB","name":"KUIPER-00644","alt_names":[],"object_type":"PAYLOAD","status":"ACTIVE","operator":null,"country":"US","launch_date":"2026-07-02","launch_site_code":"AFETR","launch_vehicle":null,"mission":null,"orbit_class":"UNKNOWN","rcs_meters":null,"size_class":null,"mass_kg":null,"dimensions":null,"purposes":[],"wikipedia_slug":null,"has_3d_model":false,"image_url":null,"decayed_at":null,"tle_current":{"epoch":"2026-09-20T04:00:03.000096Z","epoch_age_seconds":55553,"freshness":"FRESH","line1":"1 69788U 26151AB  26263.16670139 -.00031286  00000+0 -22966-2 0  9993","line2":"2 69788  51.8881 219.2056 0009469  53.0815 284.8708 15.02834884  4910","mean_motion":15.02834884,"eccentricity":0.0009469,"inclination_deg":51.8881,"raan_deg":219.2056,"arg_perigee_deg":53.0815,"mean_anomaly_deg":284.8708,"bstar":-0.0022966,"rev_number":491,"period_min":95.818909670718,"perigee_km":551.59174050821,"apogee_km":564.7276992363,"semimajor_km":6936.2967198723,"source":"CELESTRAK","updated_at":"2026-09-20T09:00:25.095655Z"}}}